[[{"header":{"parameterUnit":"m.s-1","parameterCategory":1,"la1":30.2991,"la2":30.254,"lo1":-89.0895,"lo2":-89.0444,"dy":0.0017,"dx":0.0017,"nx":28,"ny":28,"refTime":"2024-06-27T21:00:00:Z","depth":0,"parameterNumber":2,"parameterNumberName":"U-component_of_WINDS"},"data":[0,0,0,0,0,0,0,0,0,0,0,0,0,0,0,0,0,0,0,0,0,0,0,0,0,0,0,0,0,0,0,0,0,0,0,0,0,0,0,0,0,0,0,0,0,0,0,0,0,0,0,0,0,0,0,0,0,0,4.9178,4.918,0,4.937,4.9373,4.9375,4.9329,4.9325,4.9321,4.9318,4.9522,4.9531,4.954,0,0,0,0,0,0,0,0,0,0,0,0,0,4.8776,4.8784,4.9178,4.918,4.9183,4.937,4.9373,4.9375,4.9329,4.9325,4.932,4.9316,4.9519,4.953,4.954,0,0,0,0,0,0,0,0,0,0,0,0,0,4.8958,4.8786,4.9178,4.9182,4.9185,4.9369,4.9373,4.9376,4.933,4.9325,4.9319,4.9314,4.9516,4.9529,4.9542,4.9736,0,0,4.9583,4.9589,0,0,0,0,0,0,0,0,4.8948,4.8973,4.9179,4.9182,4.9185,4.9319,4.9306,4.9497,4.9332,4.9275,4.9317,4.9311,4.946,4.9477,4.9526,4.9746,4.9755,4.9584,4.9592,4.9598,4.9602,0,0,0,0,0,0,0,4.8935,4.8964,4.9254,4.9182,4.9186,4.9176,4.9196,4.9342,4.9397,4.928,4.9277,4.93,4.946,4.9513,4.953,4.9758,4.9584,4.9595,4.9604,4.9609,5.0144,5.015,0,0,0,0,0,0,4.8919,4.8954,4.9248,4.926,4.905,4.9188,4.921,4.9282,4.9395,4.9407,4.9304,4.9297,4.9493,4.9515,4.9537,4.977,4.9598,4.961,4.9618,5.0138,5.0145,5.0152,0,0,0,0,0,0,4.8911,4.8946,4.924,4.9106,4.9143,4.9201,4.9282,4.9289,4.9341,4.9413,4.9424,4.9348,4.9489,4.9519,4.9686,4.9776,4.9616,4.9628,5.0131,5.014,5.0149,5.0238,0,0,0,0,0,0,4.8899,4.8943,4.9017,4.9108,4.915,4.9385,4.9288,4.9297,4.9364,4.9356,4.9457,4.9468,4.9487,4.9666,4.9699,4.9792,4.9639,5.0123,5.0135,5.0146,5.0227,5.0249,5.0268,0,0,0,0,0,4.8885,4.9037,4.9021,4.9056,4.9243,4.939,4.9414,4.9431,4.9371,4.9446,4.9492,4.9465,4.9761,4.9684,4.9721,4.9819,5.0117,5.0131,5.0145,5.0218,5.0245,5.0268,0,0,0,0,0,0,4.8958,4.9049,4.9032,4.9217,4.9296,4.9382,4.9477,4.9459,4.9558,4.9547,4.9565,4.9589,4.9759,4.9806,4.9718,5.0011,4.9931,4.9953,4.9974,5.0,5.002,5.0005,4.965,0,0,0,0,0,4.8994,4.9104,4.9179,4.9335,4.9375,4.9419,4.9484,4.9489,4.9572,4.9606,4.9664,4.9748,4.9859,4.9933,5.004,5.0234,5.0255,5.032,5.034,5.0357,5.0375,5.0479,5.0508,5.0198,5.0198,5.0197,0,0,4.9073,4.9136,4.9205,4.9351,4.9412,4.9526,4.9447,4.9572,4.9657,4.9626,4.9786,4.9832,4.9926,5.0107,5.019,5.0151,5.0465,5.0374,5.0387,5.0397,5.0496,5.0525,5.0551,5.0207,5.0205,5.0204,0,0,4.9273,4.9333,4.9468,4.953,4.9623,4.9651,4.9683,4.9772,4.9799,4.996,4.9937,5.004,5.0233,5.03,5.0359,5.0582,5.056,5.0617,5.0723,5.0824,5.0848,5.087,5.0947,5.0975,5.0635,5.0635,5.0636,0,4.936,4.9528,4.954,4.9666,4.973,4.9704,4.984,4.9901,5.0026,5.0071,5.0026,5.0264,5.0327,5.0521,5.0575,5.0625,5.0662,5.0605,5.0843,5.0865,5.0886,5.096,5.0989,5.0641,5.0641,5.064,5.064,0,4.9629,4.9746,4.9845,4.9961,5.0036,5.0168,5.02,5.0276,5.0274,5.0307,5.047,5.0543,5.0662,5.071,5.0712,5.0905,5.0877,5.0838,5.0757,5.0921,5.099,5.1019,5.065,5.0648,5.0646,5.0645,0,0,4.9881,4.9999,5.0035,5.0086,5.0186,5.0277,5.0407,5.0521,5.0584,5.0671,5.0779,5.0941,5.0904,5.0972,5.0981,5.1069,5.1238,5.1019,5.1021,5.1055,5.1453,5.148,5.1512,5.1225,5.123,5.1235,5.1444,0,5.0088,5.0313,5.0326,5.0531,5.0638,5.0614,5.0727,5.08,5.0834,5.0932,5.0971,5.1083,5.1027,5.1067,5.1154,5.1199,5.1318,5.1184,5.1326,5.1331,5.13,5.1549,5.158,5.1773,5.1471,5.1476,5.1479,0,5.0361,5.0451,5.0665,5.0745,5.0791,5.0892,5.0996,5.1089,5.1172,5.1191,5.1264,5.126,5.1393,5.1308,5.1491,5.14,5.1459,5.149,5.1498,5.151,5.1414,5.1567,5.1836,5.1864,5.1523,5.1519,5.1516,0,5.0519,5.0695,5.0845,5.089,5.0989,5.106,5.1105,5.1182,5.1248,5.134,5.1383,5.1491,5.155,5.1633,5.1658,5.1594,5.1841,5.1758,5.1859,5.1859,5.1911,5.1907,5.2192,5.1953,5.1952,5.1952,5.1951,0,5.0748,5.088,5.0917,5.1009,5.1155,5.117,5.1315,5.1356,5.1424,5.1524,5.1511,5.1606,5.1634,5.1734,5.1754,5.1902,5.193,5.1948,5.1952,5.1948,5.1945,5.1986,5.1972,5.196,5.1958,5.1956,5.1955,0,5.0951,5.0981,5.1142,5.1221,5.1244,5.1348,5.1416,5.1505,5.1536,5.1663,5.1694,5.1743,5.186,5.1893,5.2034,5.2048,5.222,5.2213,5.2191,5.2191,5.2289,5.2278,5.2607,5.265,5.2385,5.2388,5.239,0,5.1094,5.1193,5.1282,5.1346,5.1393,5.1498,5.1564,5.1583,5.1653,5.1753,5.183,5.1944,5.2036,5.2224,5.2273,5.2381,5.2374,5.2482,5.2391,5.2383,5.2373,5.2366,5.2375,5.2499,5.2502,5.2504,5.2506,0,5.1344,5.1353,5.1448,5.1548,5.1627,5.1708,5.1785,5.184,5.1869,5.1949,5.2065,5.2137,5.2278,5.2391,5.2499,5.2547,5.2532,5.2535,5.2563,5.256,5.2542,5.255,5.2236,5.2527,5.2525,5.2523,5.2522,5.2521,5.1519,5.1605,5.1679,5.1786,5.1845,5.1917,5.2003,5.2043,5.214,5.2254,5.226,5.2387,5.2465,5.2608,5.2662,5.2761,5.273,5.2772,5.2782,5.2792,5.2798,5.2527,5.2782,5.2781,5.2781,5.278,5.278,0,5.1766,5.1812,5.1909,5.2015,5.2098,5.2074,5.2158,5.2229,5.234,5.2413,5.2503,5.2636,5.2745,5.2802,5.2911,5.298,5.2975,5.3007,5.3002,5.3012,5.2822,5.2785,5.3009,5.3009,5.3009,5.3009,5.3009,5.3009,5.1904,5.2047,5.2065,5.2237,5.2283,5.2404,5.2454,5.252,5.2578,5.2726,5.2815,5.2851,5.2918,5.303,5.3129,5.3143,5.3183,5.3219,5.3229,5.305,5.3026,5.3004,5.2969,5.3228,5.3228,5.341,5.3412,5.3413]},{"header":{"parameterUnit":"m.s-1","parameterCategory":1,"la1":30.2991,"la2":30.254,"lo1":-89.0895,"lo2":-89.0444,"dy":0.0017,"dx":0.0017,"nx":28,"ny":28,"refTime":"2024-06-27T21:00:00:Z","depth":0,"parameterNumber":3,"parameterNumberName":"V-component_of_WINDS"},"data":[0,0,0,0,0,0,0,0,0,0,0,0,0,0,0,0,0,0,0,0,0,0,0,0,0,0,0,0,0,0,0,0,0,0,0,0,0,0,0,0,0,0,0,0,0,0,0,0,0,0,0,0,0,0,0,0,0,0,0.9042,0.9042,0,0.9095,0.9095,0.9096,0.9085,0.9084,0.9083,0.9082,0.9138,0.914,0.9143,0,0,0,0,0,0,0,0,0,0,0,0,0,0.8931,0.8934,0.9042,0.9043,0.9043,0.9095,0.9095,0.9096,0.9085,0.9083,0.9082,0.9081,0.9137,0.914,0.9143,0,0,0,0,0,0,0,0,0,0,0,0,0,0.8981,0.8934,0.9042,0.9044,0.9044,0.9095,0.9095,0.9096,0.9085,0.9083,0.9082,0.9081,0.9136,0.914,0.9143,0.9196,0,0,0.9154,0.9156,0,0,0,0,0,0,0,0,0.8979,0.8986,0.9043,0.9044,0.9044,0.9081,0.9077,0.913,0.9085,0.907,0.9082,0.908,0.9121,0.9125,0.9139,0.9198,0.9201,0.9155,0.9157,0.9159,0.916,0,0,0,0,0,0,0,0.8975,0.8983,0.9063,0.9043,0.9045,0.9042,0.9047,0.9087,0.9103,0.9071,0.907,0.9076,0.9121,0.9135,0.914,0.9202,0.9155,0.9158,0.916,0.9162,0.9306,0.9307,0,0,0,0,0,0,0.8971,0.898,0.9061,0.9064,0.9007,0.9045,0.9051,0.9071,0.9102,0.9106,0.9078,0.9076,0.913,0.9136,0.9142,0.9205,0.9159,0.9162,0.9164,0.9304,0.9306,0.9308,0,0,0,0,0,0,0.8968,0.8978,0.9059,0.9022,0.9032,0.9049,0.9071,0.9073,0.9087,0.9107,0.911,0.909,0.9129,0.9137,0.9182,0.9207,0.9164,0.9167,0.9302,0.9305,0.9307,0.9332,0,0,0,0,0,0,0.8965,0.8977,0.8998,0.9023,0.9034,0.9098,0.9073,0.9075,0.9093,0.9091,0.9119,0.9123,0.9128,0.9177,0.9186,0.9211,0.917,0.93,0.9303,0.9306,0.9329,0.9335,0.934,0,0,0,0,0,0.8961,0.9003,0.8999,0.9008,0.906,0.91,0.9107,0.9112,0.9096,0.9116,0.9128,0.9122,0.9202,0.9181,0.9191,0.9218,0.9299,0.9302,0.9306,0.9327,0.9334,0.934,0,0,0,0,0,0,0.8982,0.9007,0.9002,0.9053,0.9074,0.9098,0.9124,0.9119,0.9146,0.9143,0.9149,0.9155,0.9201,0.9214,0.919,0.927,0.9248,0.9254,0.926,0.9267,0.9273,0.9269,0.9173,0,0,0,0,0,0.8992,0.9022,0.9042,0.9085,0.9096,0.9108,0.9126,0.9127,0.915,0.9159,0.9175,0.9198,0.9228,0.9248,0.9277,0.933,0.9336,0.9353,0.9359,0.9363,0.9369,0.9397,0.9405,0.932,0.932,0.932,0,0,0.9014,0.9031,0.905,0.909,0.9106,0.9138,0.9116,0.915,0.9173,0.9165,0.9208,0.922,0.9246,0.9295,0.9318,0.9307,0.9393,0.9368,0.9371,0.9374,0.9401,0.9409,0.9417,0.9323,0.9322,0.9322,0,0,0.907,0.9086,0.9123,0.914,0.9165,0.9172,0.9181,0.9205,0.9212,0.9256,0.9249,0.9277,0.9329,0.9347,0.9363,0.9423,0.9418,0.9433,0.9462,0.949,0.9496,0.9502,0.9524,0.9532,0.9438,0.9438,0.9438,0,0.9094,0.9141,0.9143,0.9177,0.9195,0.9187,0.9224,0.9241,0.9274,0.9287,0.9274,0.9338,0.9355,0.9408,0.9422,0.9435,0.9446,0.9431,0.9495,0.9501,0.9507,0.9527,0.9536,0.9439,0.9439,0.9439,0.9439,0,0.9169,0.9202,0.9229,0.926,0.928,0.9316,0.9324,0.9344,0.9343,0.9352,0.9396,0.9415,0.9447,0.9459,0.946,0.9512,0.9505,0.9493,0.9472,0.9516,0.9536,0.9544,0.9442,0.9441,0.9441,0.944,0,0,0.9243,0.9273,0.9283,0.9296,0.9322,0.9347,0.9382,0.9413,0.943,0.9453,0.9482,0.9525,0.9514,0.9533,0.9534,0.9558,0.9604,0.9544,0.9544,0.9555,0.9663,0.9672,0.9682,0.96,0.9601,0.9603,0.9661,0,0.9301,0.9363,0.9365,0.9421,0.9451,0.9442,0.9472,0.9491,0.95,0.9526,0.9535,0.9565,0.9549,0.9559,0.9582,0.9594,0.9626,0.9589,0.9628,0.963,0.9624,0.9692,0.9702,0.9757,0.9669,0.967,0.9671,0,0.9379,0.9403,0.9462,0.9482,0.9495,0.9522,0.9549,0.9574,0.9595,0.9599,0.9618,0.9616,0.9651,0.9627,0.9676,0.9651,0.9666,0.9674,0.9676,0.9681,0.9654,0.97,0.9774,0.9783,0.9683,0.9682,0.9681,0,0.9427,0.9474,0.9515,0.9527,0.9551,0.9571,0.9582,0.9601,0.9619,0.9642,0.9654,0.9682,0.9697,0.9719,0.9723,0.9705,0.9772,0.9748,0.9777,0.9777,0.9794,0.9793,0.9873,0.9801,0.9801,0.9801,0.9801,0,0.9494,0.9531,0.9537,0.9562,0.9603,0.9604,0.9644,0.9654,0.967,0.9697,0.9691,0.9717,0.9721,0.9747,0.9751,0.9791,0.9798,0.9802,0.9803,0.9804,0.9803,0.9816,0.9812,0.9803,0.9803,0.9802,0.9802,0,0.9556,0.9561,0.9605,0.9624,0.9629,0.9658,0.9674,0.9699,0.9705,0.9739,0.9747,0.9758,0.9788,0.9794,0.9831,0.9833,0.9881,0.9877,0.9874,0.9874,0.9903,0.99,0.9995,1.0007,0.9926,0.9927,0.9928,0,0.9599,0.9626,0.9647,0.9664,0.9676,0.9704,0.9722,0.9723,0.9742,0.9766,0.9787,0.9817,0.9841,0.989,0.9901,0.9928,0.9926,0.9957,0.9931,0.993,0.9928,0.9926,0.9929,0.9963,0.9964,0.9965,0.9965,0,0.9674,0.9675,0.97,0.9726,0.9747,0.9767,0.9787,0.9801,0.9805,0.9826,0.9857,0.9875,0.9911,0.9941,0.9968,0.9979,0.9973,0.9973,0.9981,0.9983,0.998,0.9983,0.9889,0.9971,0.9971,0.997,0.997,0.997,0.9729,0.9753,0.9771,0.9799,0.9813,0.9831,0.9854,0.9862,0.9888,0.9917,0.9916,0.9949,0.9968,1.0003,1.0016,1.0042,1.0033,1.0044,1.0048,1.0051,1.0054,0.9974,1.0047,1.0047,1.0047,1.0046,1.0046,0,0.9805,0.9815,0.9841,0.9868,0.9889,0.9879,0.99,0.9919,0.9948,0.9966,0.9989,1.0023,1.0051,1.0063,1.009,1.0109,1.0107,1.0116,1.0116,1.0118,1.0061,1.0051,1.0117,1.0117,1.0117,1.0117,1.0117,1.0117,0.9847,0.9887,0.9889,0.9936,0.9946,0.9978,0.9991,1.0007,1.0021,1.0059,1.0082,1.0089,1.0104,1.0132,1.0157,1.016,1.0171,1.0182,1.0183,1.013,1.0122,1.0116,1.0107,1.0184,1.0184,1.0239,1.0239,1.024]}]]